NDF49L EDDH-LEPA

Flight info

Callsign NDF49L
Flight time N/A
Altitude 23000
Route IDEKO8B IDEKO N850 PIROT/N0451F350 N850 XAROL/N0449F360 DCT BOMBI DCT GIGET DCT ABUKA DCT KRH DCT NATOR/N0450F350 DCT LUTIX DCT BENOT DCT NEMOS DCT GEVEA DCT INCUS DCT BALSI DCT RETNO DCT TUPOX DCT MTG DCT DIVKO DCT VATIR N852 VERSO L129 LUNIK LUNIK3P
Aircraft A320/M-SDE3FGHIRWY/LB1

Departure

Time N/A
Airport Hamburg Helmut Schmidt Airport (EDDH)

Arrival

Time 2026-05-04 09:38
Airport Palma de Mallorca Airport (LEPA)
Time Latitude Longitude Altitude Speed Heading
2026-05-04 07:42 50.57299 8.89953 35022 ft 418 kts 191°
2026-05-04 07:43 50.51533 8.88832 35016 ft 417 kts 191°
2026-05-04 07:43 50.45767 8.87707 35318 ft 417 kts 191°
2026-05-04 07:44 50.42894 8.87147 35586 ft 416 kts 191°
2026-05-04 07:44 50.40020 8.86593 35814 ft 415 kts 191°
2026-05-04 07:44 50.37153 8.86042 35991 ft 415 kts 191°
2026-05-04 07:44 50.34285 8.85494 36028 ft 415 kts 191°
2026-05-04 07:45 50.28542 8.84398 36019 ft 414 kts 191°
2026-05-04 07:45 50.22852 8.83309 36029 ft 414 kts 191°
2026-05-04 07:46 50.17131 8.82216 36025 ft 414 kts 191°
2026-05-04 07:46 50.11409 8.81131 36030 ft 414 kts 191°
2026-05-04 07:47 50.05689 8.80041 36013 ft 414 kts 191°
2026-05-04 07:49 49.82778 8.75277 36019 ft 416 kts 191°
2026-05-04 07:49 49.77034 8.74093 36018 ft 416 kts 191°
2026-05-04 07:50 49.71294 8.72908 36023 ft 416 kts 191°
2026-05-04 07:50 49.65554 8.71728 36025 ft 416 kts 191°
2026-05-04 07:51 49.59837 8.70579 36015 ft 416 kts 191°
2026-05-04 07:51 49.54090 8.69424 36022 ft 417 kts 191°
2026-05-04 07:52 49.48336 8.68274 36028 ft 417 kts 191°
2026-05-04 07:52 49.42586 8.67120 36031 ft 417 kts 191°
2026-05-04 07:54 49.19597 8.62479 36017 ft 416 kts 191°
2026-05-04 07:55 49.13861 8.61328 36025 ft 416 kts 191°
2026-05-04 07:55 49.08122 8.60176 36027 ft 416 kts 190°
2026-05-04 07:56 49.02419 8.59044 36025 ft 416 kts 190°
2026-05-04 07:56 48.96706 8.57782 36021 ft 414 kts 193°
2026-05-04 07:57 48.91081 8.55966 36025 ft 413 kts 195°
2026-05-04 07:57 48.85486 8.53989 36021 ft 412 kts 195°
2026-05-04 07:58 48.79880 8.52116 36020 ft 412 kts 195°
2026-05-04 07:58 48.74259 8.50313 36009 ft 413 kts 195°
2026-05-04 07:59 48.68640 8.48517 36012 ft 412 kts 195°
2026-05-04 07:59 48.65840 8.47625 35549 ft 411 kts 195°
2026-05-04 07:59 48.63079 8.46744 35128 ft 409 kts 195°
2026-05-04 08:00 48.60291 8.45851 34994 ft 410 kts 195°
2026-05-04 08:00 48.57495 8.44955 35029 ft 411 kts 195°
2026-05-04 08:02 48.35083 8.37836 35028 ft 411 kts 195°
2026-05-04 08:02 48.29478 8.36060 35025 ft 411 kts 195°
2026-05-04 08:03 48.23879 8.34289 35020 ft 411 kts 195°
2026-05-04 08:03 48.18306 8.32385 35018 ft 409 kts 201°
2026-05-04 08:04 48.13289 8.28549 35011 ft 404 kts 214°
2026-05-04 08:04 48.08569 8.23969 35017 ft 405 kts 214°
2026-05-04 08:05 48.03834 8.19407 35020 ft 405 kts 214°
2026-05-04 08:05 47.99094 8.14862 35018 ft 405 kts 214°
2026-05-04 08:06 47.94387 8.10346 35023 ft 405 kts 214°
2026-05-04 08:06 47.89647 8.05812 35011 ft 405 kts 214°
2026-05-04 08:08 47.70638 7.87721 35027 ft 406 kts 214°
2026-05-04 08:11 47.49192 7.67496 35031 ft 407 kts 214°
2026-05-04 08:11 47.42016 7.60773 35040 ft 407 kts 214°
2026-05-04 08:12 47.37230 7.56306 35039 ft 407 kts 213°
2026-05-04 08:12 47.32433 7.51838 35040 ft 408 kts 213°
2026-05-04 08:13 47.27636 7.47373 35046 ft 408 kts 214°
2026-05-04 08:13 47.22838 7.42927 35068 ft 407 kts 213°
2026-05-04 08:14 47.18062 7.38451 35065 ft 406 kts 217°
2026-05-04 08:16 47.03577 7.13270 35053 ft 404 kts 231°
2026-05-04 08:16 47.00068 7.06838 35053 ft 404 kts 231°
2026-05-04 08:17 46.96555 7.00416 35051 ft 404 kts 231°
2026-05-04 08:17 46.93029 6.94002 35067 ft 404 kts 230°
2026-05-04 08:19 46.78259 6.75238 35059 ft 403 kts 219°
2026-05-04 08:19 46.76082 6.72653 35044 ft 403 kts 220°
2026-05-04 08:20 46.71722 6.67486 35040 ft 404 kts 220°
2026-05-04 08:20 46.67359 6.62326 35039 ft 404 kts 220°
2026-05-04 08:21 46.62995 6.57167 35036 ft 404 kts 219°
2026-05-04 08:21 46.58628 6.52015 35032 ft 404 kts 219°
2026-05-04 08:22 46.54257 6.46872 35036 ft 404 kts 219°
2026-05-04 08:24 46.36466 6.26075 35054 ft 413 kts 219°
2026-05-04 08:24 46.31981 6.20864 35056 ft 413 kts 219°
2026-05-04 08:25 46.27471 6.15774 35055 ft 414 kts 213°
2026-05-04 08:25 46.22179 6.12541 35053 ft 417 kts 194°
2026-05-04 08:27 45.99178 6.07398 35079 ft 414 kts 192°
2026-05-04 08:28 45.94454 6.06357 35080 ft 412 kts 192°
2026-05-04 08:28 45.88791 6.05109 35080 ft 411 kts 192°
2026-05-04 08:29 45.83144 6.03870 35079 ft 410 kts 191°
2026-05-04 08:31 45.60620 5.98887 35056 ft 409 kts 191°
2026-05-04 08:33 45.38273 5.93233 35047 ft 408 kts 195°
2026-05-04 08:35 45.16078 5.86218 35052 ft 409 kts 194°
2026-05-04 08:35 45.10523 5.84501 35057 ft 409 kts 194°
2026-05-04 08:37 44.91050 5.78496 35056 ft 410 kts 194°
2026-05-04 08:38 44.85476 5.76791 35057 ft 410 kts 194°
2026-05-04 08:38 44.79902 5.75077 35053 ft 411 kts 195°
2026-05-04 08:40 44.57561 5.68258 35092 ft 411 kts 195°
2026-05-04 08:41 44.51955 5.66568 35102 ft 412 kts 195°
2026-05-04 08:41 44.46359 5.64877 35093 ft 411 kts 195°
2026-05-04 08:42 44.40753 5.63185 35083 ft 412 kts 195°
2026-05-04 08:42 44.35335 5.60897 35084 ft 408 kts 204°
2026-05-04 08:43 44.30038 5.57975 35086 ft 409 kts 204°
2026-05-04 08:43 44.24734 5.55074 35073 ft 409 kts 204°
2026-05-04 08:44 44.19427 5.52181 35077 ft 410 kts 204°
2026-05-04 08:46 43.98183 5.40631 35065 ft 411 kts 204°
2026-05-04 08:46 43.92858 5.37747 35057 ft 411 kts 204°
2026-05-04 08:47 43.87528 5.34859 35048 ft 411 kts 205°
2026-05-04 08:47 43.82200 5.31983 35056 ft 411 kts 205°
2026-05-04 08:48 43.76880 5.29125 35049 ft 410 kts 205°
2026-05-04 08:48 43.71570 5.26272 35045 ft 409 kts 205°
2026-05-04 08:49 43.66273 5.23429 35039 ft 408 kts 205°
2026-05-04 08:50 43.47812 5.13569 35036 ft 406 kts 205°
2026-05-04 08:51 43.42543 5.10770 35039 ft 406 kts 205°
2026-05-04 08:51 43.37431 5.07553 35033 ft 400 kts 216°
2026-05-04 08:52 43.32886 5.03242 35034 ft 400 kts 217°
2026-05-04 08:52 43.28299 4.98922 35017 ft 400 kts 217°
2026-05-04 08:54 43.09930 4.81719 35005 ft 399 kts 217°
2026-05-04 08:55 43.05314 4.77465 35008 ft 400 kts 213°
2026-05-04 08:55 43.00474 4.73776 35015 ft 401 kts 212°
2026-05-04 09:01 42.49310 4.35318 34987 ft 399 kts 212°
2026-05-04 09:01 42.44438 4.31694 34990 ft 399 kts 212°
2026-05-04 09:02 42.39566 4.28077 34992 ft 399 kts 212°
2026-05-04 09:02 42.34693 4.24464 34986 ft 400 kts 212°
2026-05-04 09:03 42.29820 4.20853 34972 ft 399 kts 212°
2026-05-04 09:03 42.24952 4.17250 35007 ft 398 kts 212°
2026-05-04 09:04 42.20096 4.13672 35018 ft 397 kts 212°
2026-05-04 09:04 42.15250 4.10108 35007 ft 396 kts 212°
2026-05-04 09:05 42.10415 4.06553 34992 ft 395 kts 212°
2026-05-04 09:05 42.05592 4.03006 35002 ft 394 kts 212°
2026-05-04 09:06 42.00778 3.99480 34993 ft 394 kts 212°
2026-05-04 09:07 41.82657 3.91115 34987 ft 403 kts 196°
2026-05-04 09:08 41.79897 3.90481 35000 ft 403 kts 196°
2026-05-04 09:08 41.74370 3.89197 35000 ft 402 kts 196°
2026-05-04 09:09 41.68850 3.87925 34986 ft 402 kts 196°
2026-05-04 09:09 41.63333 3.86664 34991 ft 402 kts 196°
2026-05-04 09:10 41.57819 3.85399 34996 ft 402 kts 196°
2026-05-04 09:10 41.52305 3.84133 34999 ft 402 kts 196°
2026-05-04 09:11 41.46824 3.82877 34982 ft 402 kts 197°
2026-05-04 09:11 41.41314 3.81618 34993 ft 402 kts 197°
2026-05-04 09:12 41.35806 3.80357 35004 ft 401 kts 196°
2026-05-04 09:12 41.33053 3.79726 34682 ft 401 kts 196°
2026-05-04 09:14 41.13877 3.74966 31982 ft 396 kts 206°
2026-05-04 09:14 41.11306 3.73628 31608 ft 397 kts 206°
2026-05-04 09:14 41.08727 3.72293 31233 ft 399 kts 206°
2026-05-04 09:14 41.06140 3.70960 30835 ft 399 kts 206°
2026-05-04 09:15 41.03555 3.69631 30472 ft 398 kts 206°
2026-05-04 09:15 41.00973 3.68306 30118 ft 397 kts 206°
2026-05-04 09:15 40.98399 3.66989 29699 ft 395 kts 206°
2026-05-04 09:15 40.95876 3.65698 29285 ft 394 kts 206°
2026-05-04 09:17 40.76598 3.55812 26239 ft 383 kts 205°
2026-05-04 09:18 40.74119 3.54549 25885 ft 381 kts 205°
2026-05-04 09:18 40.71648 3.53291 25519 ft 380 kts 205°
2026-05-04 09:18 40.69188 3.52037 25164 ft 379 kts 205°
2026-05-04 09:18 40.66732 3.50783 24802 ft 377 kts 205°
2026-05-04 09:19 40.64287 3.49540 24451 ft 376 kts 205°
2026-05-04 09:19 40.61847 3.48306 24103 ft 375 kts 205°
2026-05-04 09:19 40.59411 3.47075 23760 ft 374 kts 205°
2026-05-04 09:19 40.56989 3.45848 23390 ft 373 kts 205°
2026-05-04 09:20 40.54568 3.44617 22983 ft 372 kts 205°
2026-05-04 09:20 40.52157 3.43393 22580 ft 370 kts 205°
2026-05-04 09:20 40.49761 3.42175 22183 ft 369 kts 205°
2026-05-04 09:20 40.47370 3.40962 21791 ft 367 kts 205°
2026-05-04 09:21 40.44946 3.39896 21404 ft 369 kts 197°
2026-05-04 09:21 40.42398 3.39408 21025 ft 373 kts 188°
2026-05-04 09:21 40.39791 3.39482 20666 ft 375 kts 182°
2026-05-04 09:21 40.37192 3.39642 20327 ft 373 kts 182°
2026-05-04 09:22 40.34599 3.39794 19984 ft 372 kts 182°
2026-05-04 09:22 40.32015 3.39939 19639 ft 371 kts 182°
2026-05-04 09:22 40.29436 3.40081 19311 ft 370 kts 182°
2026-05-04 09:22 40.26864 3.40221 18980 ft 370 kts 182°
2026-05-04 09:23 40.24295 3.40361 18643 ft 369 kts 182°
2026-05-04 09:23 40.21736 3.40505 18328 ft 368 kts 182°
2026-05-04 09:23 40.19180 3.40651 17944 ft 367 kts 182°
2026-05-04 09:23 40.16632 3.40796 17575 ft 365 kts 182°
2026-05-04 09:25 39.99628 3.41760 15100 ft 333 kts 181°
2026-05-04 09:25 39.97324 3.41889 14761 ft 329 kts 182°
2026-05-04 09:26 39.95047 3.42017 14423 ft 326 kts 181°
2026-05-04 09:26 39.92791 3.42143 14095 ft 323 kts 181°
2026-05-04 09:26 39.90559 3.42267 13765 ft 320 kts 181°
2026-05-04 09:26 39.88345 3.42393 13399 ft 317 kts 181°
2026-05-04 09:27 39.86152 3.42520 13030 ft 314 kts 181°
2026-05-04 09:27 39.83979 3.42644 12668 ft 311 kts 181°
2026-05-04 09:27 39.81826 3.42765 12311 ft 309 kts 181°
2026-05-04 09:27 39.79688 3.42885 11961 ft 306 kts 181°
2026-05-04 09:28 39.77571 3.43003 11611 ft 303 kts 181°
2026-05-04 09:28 39.75471 3.43120 11257 ft 301 kts 180°
2026-05-04 09:28 39.73403 3.43008 10911 ft 294 kts 197°
2026-05-04 09:28 39.71603 3.41872 10574 ft 287 kts 221°
2026-05-04 09:29 39.70391 3.39869 10237 ft 283 kts 245°
2026-05-04 09:29 39.69966 3.37402 9908 ft 283 kts 268°
2026-05-04 09:29 39.70039 3.34854 9546 ft 281 kts 270°
2026-05-04 09:29 39.70127 3.32327 9168 ft 279 kts 270°
2026-05-04 09:30 39.70213 3.29820 8777 ft 277 kts 270°
2026-05-04 09:30 39.70296 3.27323 8402 ft 276 kts 270°
2026-05-04 09:30 39.70375 3.24845 8028 ft 274 kts 270°
2026-05-04 09:30 39.70450 3.22417 7662 ft 272 kts 270°
2026-05-04 09:31 39.70525 3.19970 7293 ft 270 kts 270°
2026-05-04 09:31 39.70598 3.17539 6930 ft 269 kts 270°
2026-05-04 09:31 39.70671 3.15120 6573 ft 267 kts 269°
2026-05-04 09:31 39.70743 3.12724 6199 ft 264 kts 269°
2026-05-04 09:32 39.70807 3.10347 5822 ft 262 kts 267°
2026-05-04 09:32 39.70465 3.08073 5448 ft 255 kts 245°
2026-05-04 09:34 39.64506 2.95212 3360 ft 219 kts 238°
2026-05-04 09:34 39.63730 2.93559 3081 ft 210 kts 237°
2026-05-04 09:34 39.62996 2.91998 2824 ft 198 kts 237°
2026-05-04 09:34 39.62309 2.90534 2555 ft 183 kts 237°
2026-05-04 09:35 39.61665 2.89165 2315 ft 173 kts 236°
2026-05-04 09:35 39.61061 2.87879 2108 ft 159 kts 236°
2026-05-04 09:35 39.60513 2.86714 1879 ft 144 kts 237°
2026-05-04 09:35 39.60004 2.85634 1703 ft 138 kts 238°
2026-05-04 09:37 39.56588 2.78369 418 ft 135 kts 239°
2026-05-04 09:37 39.56100 2.77331 275 ft 137 kts 238°
2026-05-04 09:38 39.55599 2.76296 112 ft 134 kts 238°
2026-05-04 09:38 39.55131 2.75311 40 ft 115 kts 238°
2026-05-04 09:38 39.54805 2.74625 38 ft 64 kts 239°
2026-05-04 09:38 39.54641 2.74261 37 ft 40 kts 240°
2026-05-04 09:39 39.54557 2.74020 38 ft 26 kts 260°
2026-05-04 09:39 39.54550 2.73818 38 ft 19 kts 273°
2026-05-04 09:39 39.54573 2.73666 37 ft 13 kts 306°
2026-05-04 09:39 39.54648 2.73648 37 ft 11 kts 46°
2026-05-04 09:40 39.54686 2.73731 36 ft 10 kts 59°
2026-05-04 09:40 39.54721 2.73806 38 ft 9 kts 59°
2026-05-04 09:40 39.54753 2.73872 38 ft 8 kts 55°
2026-05-04 09:40 39.54798 2.73962 38 ft 15 kts 53°
2026-05-04 09:41 39.54869 2.73980 38 ft 10 kts 317°
2026-05-04 09:42 39.55166 2.73749 38 ft 13 kts 317°
2026-05-04 09:43 39.55155 2.73642 38 ft 14 kts 239°
2026-05-04 09:43 39.55102 2.73534 38 ft 13 kts 237°
2026-05-04 09:43 39.55052 2.73431 38 ft 12 kts 228°
2026-05-04 09:43 39.55008 2.73437 38 ft 3 kts 166°
2026-05-04 09:44 39.55000 2.73440 38 ft 0 kts 164°